Regional Weather Roundup
Issued by NWS

Home | Current Version | Previous Version | Text Only | Print | Product List | Glossary Off
Versions: 1 2 3 4 5 6 7 8 9 10 11 12 13 14 15 16 17 18 19 20 21 22 23 24 25 26 27 28

000
ASUS45 KSLC 240910
RWRUT

UTAH REGIONAL WEATHER ROUNDUP
NATIONAL WEATHER SERVICE SALT LAKE CITY UT
300 AM MDT FRI OCT 24 2014

UTZ001>011-023>025-241000-

NORTHERN UTAH

CITY           SKY/WX    TMP DP  RH WIND       PRES   REMARKS
BRIGHAM CITY   CLOUDY    47  38  73 CALM      30.12S
HILL AFB       CLOUDY    58  32  38 S7        30.12S
LOGAN          CLEAR     45  38  76 CALM      30.13S
OGDEN          CLOUDY    52  39  61 SW3       30.11S
PROVO AIRPORT  CLEAR     50  28  43 E7        30.15R
SALT LAKE CITY PTCLDY    49  40  71 CALM      30.11R
VERNAL         PTCLDY    43  34  70 W6        30.22R
WENDOVER       MOCLDY    46  30  53 CALM      30.12R
HEBER CITY     CLEAR     41  28  60 SW5       30.19S
WEST JORDAN    CLEAR     61  36  39 S10       30.12R

$$

UTZ012>022-026-027-241000-

SOUTHERN/CENTRAL UTAH

CITY           SKY/WX    TMP DP  RH WIND       PRES   REMARKS
BLANDING       MOCLDY    46  30  53 N5        30.36R
BRYCE CANYON   CLEAR     27  23  85 W6        30.37S WCI  20
CEDAR CITY     PTCLDY    38  27  64 NE3       30.23S
DELTA          CLEAR     57  29  34 S12       30.16S
HANKSVILLE       N/A     43  30  61 CALM      30.21R
MILFORD        CLEAR     49  29  46 CALM      30.19S
MOAB/CYNLANDS  CLEAR     50  33  52 CALM      30.19R
PRICE          PTCLDY    47  33  58 NE7       30.25S
ST GEORGE      SUNNY     59  30  33 CALM      30.15S
KANAB            N/A     41  30  65 NE6       30.28R

$$

REGIONAL REPORTS     COLORADO/ARIZONA

CITY           SKY/WX    TMP DP  RH WIND       PRES   REMARKS
CRAIG, CO      CLEAR     34  30  85 SE3       30.28R
GRAND JUNCTION CLEAR     46  35  65 SE13      30.23R
RIFLE          PTCLDY    38  35  89 E3        30.29S
MONTROSE       CLEAR     43  33  68 S9        30.31S
CORTEZ         CLEAR     35  29  78 NE7       30.32S WCI  29
PAGE, AZ       CLEAR     56  34  43 SW5       30.20R
GRAND CANYON   PTCLDY    31  24  75 CALM      30.35R HAZE
KINGMAN        CLEAR     54  38  54 SE9       30.14S
FLAGSTAFF      PTCLDY    35  30  82 CALM      30.37R

$$

REGIONAL REPORTS    NEVADA/IDAHO/WYOMING

CITY           SKY/WX    TMP DP  RH WIND       PRES   REMARKS
LAS VEGAS, NV  CLEAR     68  36  30 SW8       30.01S
ELY            CLEAR     50  26  39 SW13      30.22S
ELKO           PTCLDY    40  20  44 E8        30.12R WCI  34
POCATELLO, ID  MOCLDY    53  39  59 SW8       30.14R
BURLEY         CLOUDY    48  40  73 SW3       30.12S
EVANSTON, WY   PTCLDY    45  23  42 SW10      30.21S
ROCK SPRINGS   MOCLDY    49  25  39 CALM      30.20R
KEMMERER       CLOUDY    37  28  70 CALM      30.23R

$$



USA.gov is the U.S. government's official web portal to all federal, state and local government web resources and services.